Location: Unspecified
(49.9820°N, 20.4363°E)
Time: 03:29:44
(UTC+02:00)

Vanguard 3 - Pass Details

Date: 14 May 2026
Orbit: 507 x 3204 km, 33.3° (Epoch: 6 June)

Event Time Altitude Azimuth Distance (km) Brightness Sun altitude
Rises 18:03:05 0° 263° (W) 7,154 13.4 19.2°
Reaches altitude 10° 18:08:31 10° 257° (WSW) 6,067 13.2 18.4°
Maximum altitude 18:24:26 38° 199° (SSW) 3,536 10.7 15.9°
Drops below altitude 10° 18:35:42 10° 138° (SE) 4,323 10.4 14.1°
Sets 18:38:51 0° 130° (SE) 4,977 10.6 13.6°
